2019-093J

Last updated on Mon Jan 20 2020 00:02:04 GMT+0000 (Coordinated Universal Time)

1 44887U 19093J 20019.49477758 .00000101 00000-0 19326-4 0 9993 2 44887 97.9752 96.4971 0015221 175.9502 184.1838 14.82316802 4493
UTC large
Height (km)
Speed (km/s)
/
Latitude / Longitude
Inclination (degrees)
Orbital Period (minutes)
Azimuth
Elevation
Range (km)
Doppler Factor

Next 0 passes for location: London (51.5072 / 0.1276)

Sorry there are no passes over London.